TimeCST,TemperatureF,Dew PointF,Humidity,Sea Level PressureIn,VisibilityMPH,Wind Direction,Wind SpeedMPH,Gust SpeedMPH,PrecipitationIn,Events,Conditions,WindDirDegrees,DateUTC
12:52 AM,19.9,17.1,89,30.02,8.0,NW,10.4,20.7,N/A,,Overcast,320,2013-02-11 06:52:00
1:40 AM,21.0,17.1,85,29.95,10.0,NW,18.4,25.3,N/A,,Overcast,320,2013-02-11 07:40:00
1:52 AM,21.0,17.1,85,30.03,10.0,NW,18.4,25.3,N/A,,Overcast,320,2013-02-11 07:52:00
2:52 AM,21.0,17.1,85,30.04,10.0,NW,13.8,-,N/A,,Overcast,310,2013-02-11 08:52:00
3:52 AM,21.0,17.1,85,30.04,10.0,NW,18.4,26.5,N/A,,Overcast,320,2013-02-11 09:52:00
4:52 AM,21.0,16.0,81,30.06,10.0,NW,19.6,32.2,N/A,,Overcast,320,2013-02-11 10:52:00
5:19 AM,19.9,15.1,81,29.99,10.0,NNW,19.6,29.9,N/A,,Overcast,330,2013-02-11 11:19:00
5:52 AM,19.9,15.1,81,30.07,10.0,NNW,16.1,-,N/A,,Overcast,340,2013-02-11 11:52:00
6:52 AM,19.9,15.1,81,30.09,10.0,NNW,12.7,-,N/A,,Overcast,330,2013-02-11 12:52:00
7:52 AM,19.9,15.1,81,30.10,10.0,North,8.1,-,N/A,,Overcast,360,2013-02-11 13:52:00
8:45 AM,21.0,17.1,85,30.02,8.0,NW,11.5,-,N/A,,Overcast,320,2013-02-11 14:45:00
8:52 AM,21.0,17.1,85,30.11,8.0,NW,11.5,-,N/A,,Overcast,320,2013-02-11 14:52:00
9:52 AM,21.0,17.1,85,30.12,4.0,NW,10.4,-,0.00,Snow,Light Snow,320,2013-02-11 15:52:00
10:41 AM,21.0,17.1,85,30.04,7.0,WNW,9.2,-,0.00,,Overcast,300,2013-02-11 16:41:00
10:52 AM,21.0,16.0,81,30.13,10.0,WNW,9.2,-,0.00,,Overcast,300,2013-02-11 16:52:00
11:34 AM,21.0,16.0,81,30.04,2.5,NW,9.2,-,0.00,Snow,Light Snow,310,2013-02-11 17:34:00
11:50 AM,21.2,15.8,80,30.04,3.0,WNW,11.5,-,0.00,Snow,Light Snow,300,2013-02-11 17:50:00
11:52 AM,21.9,16.0,78,30.13,3.0,NW,10.4,-,0.00,Snow,Light Snow,310,2013-02-11 17:52:00
12:52 PM,21.9,15.1,75,30.11,10.0,NW,10.4,-,0.00,,Overcast,310,2013-02-11 18:52:00
1:52 PM,21.9,15.1,75,30.09,10.0,West,11.5,-,0.00,,Overcast,270,2013-02-11 19:52:00
2:52 PM,23.0,16.0,74,30.07,10.0,West,12.7,-,N/A,,Overcast,270,2013-02-11 20:52:00
3:52 PM,24.1,16.0,71,30.05,10.0,West,10.4,-,N/A,,Overcast,280,2013-02-11 21:52:00
4:52 PM,25.0,17.1,72,30.04,10.0,WSW,11.5,-,N/A,,Overcast,250,2013-02-11 22:52:00
5:28 PM,24.1,17.1,75,29.94,10.0,WSW,6.9,-,N/A,,Scattered Clouds,240,2013-02-11 23:28:00
5:52 PM,23.0,16.0,74,30.02,10.0,SW,6.9,-,N/A,,Clear,220,2013-02-11 23:52:00
6:52 PM,19.0,14.0,81,30.02,10.0,South,4.6,-,N/A,,Clear,180,2013-02-12 00:52:00
7:52 PM,17.1,12.9,84,30.00,10.0,Calm,Calm,-,N/A,,Mostly Cloudy,0,2013-02-12 01:52:00
8:52 PM,19.0,15.1,85,29.98,10.0,Calm,Calm,-,N/A,,Overcast,0,2013-02-12 02:52:00
9:52 PM,18.0,14.0,84,29.98,10.0,Calm,Calm,-,N/A,,Scattered Clouds,0,2013-02-12 03:52:00
10:52 PM,19.9,16.0,85,29.94,10.0,Calm,Calm,-,N/A,,Overcast,0,2013-02-12 04:52:00
11:52 PM,18.0,15.1,88,29.92,10.0,Calm,Calm,-,N/A,,Clear,0,2013-02-12 05:52:00